Home   Weather   Daytona Beach   Past weeks

Flag for USA Past Weather in Daytona Beach, Florida, USA — Yesterday and Last 2 Weeks

Now
78 °F

Broken clouds.


Feels Like: 80 °F
Forecast: 67 / 80 °F
Wind: 10 mph from Southeast

Location: Daytona Beach Regional Airport

Current Time: Apr 23, 2017 at 8:06:23 pm

Latest Report: Apr 23, 2017 at 6:53 pm


Visibility: 10 mi

Pressure: 29.76 "Hg

Humidity: 71%

Dew Point: 68 °F

Location of Daytona BeachLocation

Past Weather in Daytona Beach — Graph

°F

Daytona Beach Temperature Yesterday

Maximum temperature yesterday: 82 °F (at 1:53 pm)
Minimum temperature yesterday: 63 °F (at 4:53 am)
Average temperature yesterday: 73 °F

High & Low Weather Summary for the Past Weeks

 TemperatureHumidityPressure
High83 °F (Apr 23, 3:53 pm)100% (Apr 17, 3:53 am)30.31 "Hg (Apr 17, 3:53 am)
Low47 °F (Apr 9, 4:53 am)39% (Apr 8, 6:53 pm)29.76 "Hg (Apr 23, 6:53 pm)
Average71 °F69%30.14 "Hg
* Reported Apr 8 6:53 pm — Apr 23 6:53 pm, Daytona Beach, Weather by CustomWeather, © 2017

Note: Actual official high and low records may vary slightly from our data, if they occured in-between our weather recording intervals... More about our weather records

Advertising

Daytona Beach Weather History for the Previous 24 Hours

Scroll right to see more
 ConditionsComfort  
Time TempWeatherWind HumidityBarometerVisibility
6:53 pm
Sun, Apr 23
78 °FBroken clouds.10 mph71%29.76 "Hg10 mi
5:53 pm78 °FBroken clouds.9 mph64%29.77 "Hg10 mi
4:53 pm81 °FBroken clouds.10 mph58%29.78 "Hg10 mi
3:53 pm83 °FBroken clouds.10 mph57%29.79 "Hg10 mi
2:53 pm80 °FBroken clouds.13 mph67%29.82 "Hg10 mi
1:53 pm82 °FBroken clouds.12 mph65%29.85 "Hg10 mi
12:53 pm81 °FPartly sunny.13 mph67%29.86 "Hg10 mi
11:53 am81 °FBroken clouds.8 mph67%29.88 "Hg10 mi
10:53 am77 °FBroken clouds.3 mph74%29.89 "Hg10 mi
9:53 am76 °FPartly sunny.5 mph77%29.89 "Hg10 mi
8:53 am73 °FPartly sunny.No wind88%29.88 "Hg10 mi
7:53 am71 °FPartly sunny.3 mph93%29.88 "Hg10 mi
6:53 am70 °FPartly sunny.No wind93%29.88 "Hg10 mi
5:53 am69 °FPassing clouds.3 mph96%29.87 "Hg10 mi
4:53 am70 °FPassing clouds.No wind97%29.88 "Hg9 mi
3:53 am69 °FPassing clouds.No wind96%29.89 "Hg8 mi
2:53 am70 °FPartly cloudy.No wind93%29.89 "Hg9 mi
1:53 am71 °FPassing clouds.3 mph93%29.91 "Hg9 mi
12:53 am73 °FPassing clouds.3 mph88%29.91 "Hg9 mi
11:53 pm
Sat, Apr 22
73 °FPassing clouds.5 mph88%29.91 "Hg9 mi
10:53 pm73 °FPassing clouds.10 mph84%29.91 "Hg7 mi
9:53 pm74 °FPassing clouds.8 mph79%29.91 "Hg7 mi
8:53 pm75 °FOvercast.7 mph79%29.90 "Hg8 mi
Weather by CustomWeather, © 2017

See weather overviewHow to use our weather pages